This demonstration page uses our WeatherBlox Daily Observations layout. Learn more.

36.17497, -115.13722

Hourly Observations for January 14, 2018

Temp ( °F °C ) Dew Point ( °F °C ) Humidity (%) Winds ( mph kmh ) Pressure ( in mb ) Visibility ( mi km ) Precip ( " mm )
12:53 am 00:53 Clear 52 11.1 31 -0.6 45 45 NNW 12 19 30.33 1027 10 16.0934 0 0
1:53 am 01:53 Clear 51 10.6 31 -0.6 46 46 N 3 6 30.34 1028 10 16.0934 0 0
2:53 am 02:53 Clear 47 8.3 32 0 56 56 SSE 3 6 30.35 1028 10 16.0934 0 0
3:53 am 03:53 Clear 46 7.8 32 0 58 58 Calm 30.34 1028 10 16.0934 0 0
4:53 am 04:53 Clear 52 11.1 30 -1.1 43 43 NNE 3 6 30.35 1028 10 16.0934 0 0
5:53 am 05:53 Clear 46 7.8 32 0 58 58 Calm 30.37 1028 10 16.0934 0 0
6:53 am 06:53 Sunny 47 8.3 32 0 56 56 W 9 15 30.37 1029 10 16.0934 0 0
7:53 am 07:53 Sunny 50 10 31 -0.6 48 48 WNW 6 9 30.39 1029 10 16.0934 0 0
8:53 am 08:53 Sunny 55 12.8 31 -0.6 40 40 NNW 6 9 30.39 1029 10 16.0934 0 0
9:53 am 09:53 Sunny 58 14.4 32 0 38 38 NW 7 11 30.39 1029 10 16.0934 0 0
10:53 am 10:53 Sunny 61 16.1 32 0 34 34 Calm 30.35 1028 10 16.0934 0 0
11:53 am 11:53 Sunny 62 16.7 32 0 32 32 SSE 5 7 30.31 1026 10 16.0934 0 0
12:53 pm 12:53 Sunny 63 17.2 31 -0.6 30 30 S 6 9 30.27 1025 10 16.0934 0 0
1:53 pm 13:53 Sunny 65 18.3 31 -0.6 28 28 VRB 3 6 30.25 1025 10 16.0934 0 0
2:53 pm 14:53 Sunny 65 18.3 32 0 29 29 ESE 5 7 30.24 1024 10 16.0934 0 0
3:53 pm 15:53 Sunny 65 18.3 31 -0.6 28 28 Calm 30.24 1024 10 16.0934 0 0
4:53 pm 16:53 Clear 63 17.2 33 0.6 33 33 WSW 3 6 30.23 1024 10 16.0934 0 0
5:53 pm 17:53 Clear 58 14.4 35 1.7 42 42 W 5 7 30.24 1024 10 16.0934 0 0
6:53 pm 18:53 Clear 57 13.9 36 2.2 45 45 W 3 6 30.24 1024 10 16.0934 0 0
7:53 pm 19:53 Clear 55 12.8 38 3.3 53 53 NNW 5 7 30.23 1024 10 16.0934 0 0
8:53 pm 20:53 Clear 53 11.7 37 2.8 55 55 Calm 30.23 1024 10 16.0934 0 0
9:53 pm 21:53 Clear 51 10.6 38 3.3 61 61 NW 6 9 30.23 1024 10 16.0934 0 0
10:53 pm 22:53 Clear 50 10 39 3.9 66 66 NNW 3 6 30.23 1024 10 16.0934 0 0
11:53 pm 23:53 Clear 50 10 37 2.8 61 61 WNW 5 7 30.22 1023 10 16.0934 0 0

Powered by AerisWeather